When you browse on this site, cookies collect data to enhance your experience and personalize the content and advertising you see.
Visit our Privacy Policy to learn more. By continuing to use the site, you agree to this use of cookies and data.
  • In Portugal
  • List of Countries
  • For 7 days
  • Water Temperature
  • Satellite Maps
  • Weather Map
  • Weather Widgets
  • user-avatar
    Login

    Hourly Weather Badya

    Today, 19 July, Friday

    Time Temperature Precipitation Wind Pressure Humidity
    00:00 +9°C° 0 mm 1 mps 743 mmHg 96%
    01:00 +9°C° 0 mm 1 mps 743 mmHg 97%
    02:00 +8°C° 0 mm 1 mps 743 mmHg 97%
    03:00 +8°C° 0 mm 1 mps 743 mmHg 98%
    04:00 +10°C° 0 mm 1 mps 743 mmHg 91%
    05:00 +11°C° 0 mm 0 mps 743 mmHg 84%
    06:00 +13°C° 0 mm 0 mps 742 mmHg 76%
    07:00 +16°C° 0 mm 1 mps 742 mmHg 69%
    08:00 +19°C° 0 mm 1 mps 742 mmHg 62%
    09:00 +21°C° 0 mm 1 mps 742 mmHg 53%
    10:00 +22°C° 0 mm 1 mps 742 mmHg 48%
    11:00 +24°C° 0 mm 1 mps 742 mmHg 44%
    12:00 +25°C° 0 mm 1 mps 741 mmHg 40%
    13:00 +26°C° 0 mm 1 mps 741 mmHg 38%
    14:00 +26°C° 0 mm 1 mps 741 mmHg 35%
    15:00 +24°C° 0 mm 0 mps 741 mmHg 34%
    16:00 +25°C° 0 mm 1 mps 741 mmHg 39%
    17:00 +24°C° 0 mm 1 mps 741 mmHg 45%
    18:00 +23°C° 0 mm 1 mps 741 mmHg 51%
    19:00 +21°C° 0 mm 1 mps 741 mmHg 59%
    20:00 +19°C° 0 mm 1 mps 741 mmHg 67%
    21:00 +16°C° 0 mm 1 mps 741 mmHg 75%
    22:00 +16°C° 0 mm 1 mps 741 mmHg 76%
    23:00 +16°C° 0 mm 1 mps 741 mmHg 76%

    Tomorrow, 20 July, Saturday

    Time Temperature Precipitation Wind Pressure Humidity
    00:00 +16°C° 0 mm 1 mps 741 mmHg 76%
    01:00 +15°C° 0.4 mm 1 mps 741 mmHg 81%
    02:00 +15°C° 0.4 mm 2 mps 741 mmHg 85%
    03:00 +15°C° 0.4 mm 2 mps 741 mmHg 89%
    04:00 +15°C° 0.4 mm 2 mps 741 mmHg 91%
    05:00 +15°C° 0.4 mm 1 mps 741 mmHg 93%
    06:00 +15°C° 0.4 mm 1 mps 741 mmHg 95%
    07:00 +16°C° 0 mm 1 mps 741 mmHg 93%
    08:00 +18°C° 0 mm 1 mps 741 mmHg 90%
    09:00 +19°C° 0 mm 1 mps 741 mmHg 87%
    10:00 +20°C° 0 mm 2 mps 741 mmHg 75%
    11:00 +23°C° 0 mm 2 mps 741 mmHg 63%
    12:00 +25°C° 0 mm 2 mps 741 mmHg 51%
    13:00 +26°C° 0 mm 2 mps 741 mmHg 51%
    14:00 +26°C° 0 mm 2 mps 741 mmHg 50%
    15:00 +26°C° 0 mm 2 mps 741 mmHg 49%
    16:00 +25°C° 0.3 mm 2 mps 741 mmHg 59%
    17:00 +24°C° 0.3 mm 1 mps 741 mmHg 68%
    18:00 +23°C° 0.3 mm 1 mps 741 mmHg 77%
    19:00 +22°C° 0.2 mm 1 mps 741 mmHg 81%
    20:00 +20°C° 0.2 mm 1 mps 740 mmHg 85%
    21:00 +18°C° 0.2 mm 1 mps 740 mmHg 88%
    22:00 +18°C° 0 mm 1 mps 740 mmHg 90%
    23:00 +16°C° 0 mm 1 mps 740 mmHg 92%

    Day after tomorrow, 21 July, Sunday

    Time Temperature Precipitation Wind Pressure Humidity
    00:00 +15°C° 0 mm 1 mps 740 mmHg 94%
    01:00 +15°C° 0.1 mm 1 mps 740 mmHg 94%
    02:00 +15°C° 0.1 mm 1 mps 740 mmHg 95%
    03:00 +14°C° 0.1 mm 1 mps 740 mmHg 96%
    04:00 +16°C° 0.1 mm 1 mps 740 mmHg 94%
    05:00 +18°C° 0.1 mm 1 mps 740 mmHg 92%
    06:00 +19°C° 0.1 mm 1 mps 740 mmHg 90%
    07:00 +20°C° 0.5 mm 1 mps 740 mmHg 84%
    08:00 +22°C° 0.5 mm 1 mps 740 mmHg 78%
    09:00 +24°C° 0.5 mm 1 mps 740 mmHg 71%
    10:00 +24°C° 0.7 mm 1 mps 740 mmHg 69%
    11:00 +24°C° 0.7 mm 1 mps 739 mmHg 67%
    12:00 +25°C° 0.7 mm 1 mps 739 mmHg 65%
    13:00 +25°C° 0.4 mm 1 mps 739 mmHg 62%
    14:00 +26°C° 0.4 mm 1 mps 739 mmHg 58%
    15:00 +26°C° 0.4 mm 1 mps 739 mmHg 55%
    16:00 +25°C° 0.4 mm 1 mps 739 mmHg 61%
    17:00 +24°C° 0.4 mm 1 mps 739 mmHg 68%
    18:00 +24°C° 0.4 mm 1 mps 739 mmHg 75%
    19:00 +22°C° 0.1 mm 1 mps 739 mmHg 80%
    20:00 +20°C° 0.1 mm 1 mps 738 mmHg 85%
    21:00 +18°C° 0.1 mm 1 mps 738 mmHg 91%
    22:00 +16°C° 0 mm 1 mps 738 mmHg 92%
    23:00 +16°C° 0 mm 1 mps 738 mmHg 93%

    22 July, Monday

    Time Temperature Precipitation Wind Pressure Humidity
    00:00 +15°C° 0 mm 1 mps 738 mmHg 94%
    01:00 +15°C° 0.1 mm 1 mps 738 mmHg 95%
    02:00 +14°C° 0.1 mm 1 mps 738 mmHg 95%
    03:00 +14°C° 0.1 mm 1 mps 738 mmHg 96%
    04:00 +15°C° 0 mm 1 mps 738 mmHg 94%
    05:00 +16°C° 0 mm 1 mps 738 mmHg 93%
    06:00 +19°C° 0 mm 1 mps 738 mmHg 91%
    07:00 +19°C° 0.2 mm 1 mps 738 mmHg 88%
    08:00 +20°C° 0.2 mm 1 mps 738 mmHg 85%
    09:00 +21°C° 0.2 mm 1 mps 738 mmHg 82%
    10:00 +22°C° 0.4 mm 1 mps 738 mmHg 80%
    11:00 +22°C° 0.4 mm 1 mps 738 mmHg 78%
    12:00 +23°C° 0.4 mm 1 mps 738 mmHg 75%
    13:00 +21°C° 1.3 mm 2 mps 738 mmHg 79%
    14:00 +21°C° 1.3 mm 2 mps 738 mmHg 83%
    15:00 +21°C° 1.3 mm 3 mps 738 mmHg 86%
    16:00 +20°C° 0.9 mm 3 mps 738 mmHg 88%
    17:00 +19°C° 0.9 mm 3 mps 738 mmHg 90%
    18:00 +18°C° 0.9 mm 3 mps 738 mmHg 91%
    19:00 +17°C° 0.1 mm 3 mps 738 mmHg 92%
    20:00 +16°C° 0.1 mm 3 mps 738 mmHg 93%
    21:00 +14°C° 0.1 mm 3 mps 739 mmHg 95%
    22:00 +13°C° 0 mm 3 mps 739 mmHg 95%
    23:00 +13°C° 0 mm 3 mps 739 mmHg 96%

    23 July, Tuesday

    Time Temperature Precipitation Wind Pressure Humidity
    00:00 +13°C° 0 mm 2 mps 739 mmHg 97%
    01:00 +13°C° 0 mm 2 mps 739 mmHg 97%
    02:00 +13°C° 0 mm 2 mps 739 mmHg 97%
    03:00 +13°C° 0 mm 2 mps 739 mmHg 97%
    04:00 +13°C° 0 mm 2 mps 740 mmHg 96%
    05:00 +14°C° 0 mm 2 mps 740 mmHg 94%
    06:00 +14°C° 0 mm 2 mps 740 mmHg 93%
    07:00 +15°C° 0 mm 2 mps 740 mmHg 88%
    08:00 +17°C° 0 mm 2 mps 740 mmHg 82%
    09:00 +18°C° 0 mm 2 mps 740 mmHg 77%
    10:00 +19°C° 0 mm 2 mps 741 mmHg 72%
    11:00 +21°C° 0 mm 2 mps 741 mmHg 67%
    12:00 +23°C° 0 mm 2 mps 741 mmHg 62%
    13:00 +23°C° 0.1 mm 2 mps 741 mmHg 62%
    14:00 +23°C° 0.1 mm 2 mps 741 mmHg 63%
    15:00 +24°C° 0.1 mm 2 mps 741 mmHg 63%
    16:00 +23°C° 0.1 mm 2 mps 741 mmHg 67%
    17:00 +21°C° 0.1 mm 2 mps 741 mmHg 71%
    18:00 +20°C° 0.1 mm 2 mps 741 mmHg 76%
    19:00 +19°C° 0.1 mm 2 mps 741 mmHg 79%
    20:00 +18°C° 0.1 mm 2 mps 741 mmHg 83%
    21:00 +17°C° 0.1 mm 2 mps 741 mmHg 87%
    22:00 +16°C° 0.2 mm 2 mps 741 mmHg 90%
    23:00 +16°C° 0.2 mm 2 mps 741 mmHg 93%

    24 July, Wednesday

    Time Temperature Precipitation Wind Pressure Humidity
    00:00 +15°C° 0.2 mm 2 mps 742 mmHg 96%
    01:00 +15°C° 0.5 mm 2 mps 742 mmHg 96%
    02:00 +15°C° 0.5 mm 2 mps 742 mmHg 97%
    03:00 +14°C° 0.5 mm 1 mps 742 mmHg 98%
    04:00 +15°C° 0 mm 1 mps 742 mmHg 97%
    05:00 +16°C° 0 mm 1 mps 742 mmHg 96%
    06:00 +18°C° 0 mm 1 mps 742 mmHg 95%
    07:00 +19°C° 0.1 mm 1 mps 742 mmHg 89%
    08:00 +21°C° 0.1 mm 1 mps 742 mmHg 83%
    09:00 +20°C° 0.1 mm 0 mps 742 mmHg 78%
    10:00 +24°C° 0.7 mm 1 mps 742 mmHg 73%
    11:00 +25°C° 0.7 mm 1 mps 742 mmHg 69%
    12:00 +26°C° 0.7 mm 1 mps 742 mmHg 64%
    13:00 +25°C° 1 mm 1 mps 742 mmHg 67%
    14:00 +25°C° 1 mm 2 mps 742 mmHg 71%
    15:00 +24°C° 1 mm 2 mps 742 mmHg 74%
    16:00 +23°C° 0.6 mm 2 mps 742 mmHg 79%
    17:00 +23°C° 0.6 mm 2 mps 742 mmHg 84%
    18:00 +21°C° 0.6 mm 2 mps 742 mmHg 89%
    19:00 +21°C° 0 mm 1 mps 742 mmHg 91%
    20:00 +19°C° 0 mm 1 mps 742 mmHg 93%
    21:00 +18°C° 0 mm 1 mps 742 mmHg 95%
    22:00 +18°C° 0 mm 1 mps 742 mmHg 94%
    23:00 +18°C° 0 mm 1 mps 743 mmHg 94%
    Show more